www.pogodaiklimat.ru

Погода и климат >> Архив погоды >> Австралия >> Квинсленд >> Бердсвилл


ПОГОДА в Бердсвилле

  • Прогноз погоды в Бердсвилле
  • Монитор погоды в Бердсвилле

АРХИВ ПОГОДЫ в Бердсвилле

Время (UTC), дата Ветер
(напр.,м/с)
 
Видим.   Явления Облачность Т
(С)
Тd
(С)
f
(%)
Тe
(С)
Тes
(С)
Комфортность P
(гПа)
Po
(гПа)
Тmin
(С)
Tmax
(С)
R
(мм)
R24
(мм)
S
(см)
02 9.06 СВ 6 н/о н/о +21.4 +14.8 66 +24 +24 комфорт 1019.0 1013.4 +9.0
03 9.06 С 8 н/о н/о +23.2 +13.7 55 +27 +27 душно 1017.8 1012.2
05 9.06 С 5 н/о н/о +25.4 +13.9 49 +28 +28 жарко 1016.0 1010.4
06 9.06 С 5 н/о н/о +25.9 +13.4 46 +28 +28 жарко 1015.4 1009.8
08 9.06 С 5 н/о н/о +23.9 +12.5 49 +26 +26 жарко 1015.1 1009.5
09 9.06 С 4 н/о н/о +22.0 +12.8 56 +25 +25 комфорт 1015.5 1009.9
11 9.06 СВ 4 н/о н/о +18.2 +12.4 69 +18 +18 1016.7 1011.1
12 9.06 СВ 2 н/о н/о +17.4 +12.3 72 +18 +18 1017.0 1011.4
14 9.06 СВ 3 н/о н/о +15.0 +11.4 79 +14 +14 1017.1 1011.5 +26.2
15 9.06 СВ 4 н/о н/о +14.6 +12.3 86 +13 +13 1016.5 1010.9
17 9.06 СВ 4 н/о н/о +14.1 +12.5 90 +13 +13 1016.2 1010.6
18 9.06 СВ 4 н/о н/о +13.5 +12.4 93 +12 +12 1016.0 1010.4
20 9.06 СВ 5 н/о н/о +14.6 +13.0 90 +13 +13 1016.2 1010.6
21 9.06 СВ 5 н/о н/о +14.7 +12.7 88 +13 +13 1016.6 1011.0
23 9.06 СВ 7 н/о н/о +20.5 +15.7 74 +23 +23 комфорт 1017.6 1012.0
00 10.06 С 9 н/о н/о +23.4 +16.2 64 +28 +28 душно 1017.5 1011.9
02 10.06 С 8 н/о н/о +27.9 +15.9 48 +31 +31 душно 1016.8 1011.2 +13.5
03 10.06 С 7 н/о н/о +29.4 +14.8 41 +32 +32 душно 1015.9 1010.3
05 10.06 СЗ 6 н/о н/о +30.2 +14.3 38 +32 +32 жарко 1014.9 1009.3
06 10.06 З 2 н/о н/о +30.0 +14.9 40 +32 +32 жарко 1014.8 1009.2
08 10.06 Ю 3 н/о н/о +26.5 +16.1 53 +30 +30 душно 1015.8 1010.2
09 10.06 Ю 3 н/о н/о +24.2 +15.7 59 +27 +27 жарко 1016.5 1010.9
11 10.06 ЮВ 3 н/о н/о +22.9 +15.5 63 +27 +27 душно 1017.9 1012.3
12 10.06 ЮВ 3 н/о н/о +22.8 +15.6 64 +27 +27 душно 1018.2 1012.6
14 10.06 ЮВ 2 н/о н/о +21.3 +14.9 67 +24 +24 комфорт 1018.2 1012.6 +31.0
15 10.06 В 2 н/о н/о +21.4 +15.0 67 +25 +25 комфорт 1018.0 1012.4
17 10.06 ЮВ 2 н/о н/о +18.9 +13.3 70 +21 +21 комфорт 1017.7 1012.1
18 10.06 ЮВ 2 н/о н/о +17.2 +12.7 75 +18 +18 1017.7 1012.1
20 10.06 ЮВ 2 н/о н/о +15.6 +12.2 80 +15 +15 1017.9 1012.3
21 10.06 В 3 н/о н/о +14.9 +12.0 83 +14 +14 1018.9 1013.3
23 10.06 В 4 н/о н/о +18.6 +13.7 73 +19 +19 1020.6 1014.9
00 11.06 С 6 н/о н/о +22.5 +14.4 60 +26 +26 жарко 1021.2 1015.5
02 11.06 СВ 8 н/о н/о +27.8 +14.8 45 +30 +30 жарко 1020.2 1014.5 +14.5
03 11.06 С 7 н/о н/о +29.2 +14.2 40 +31 +31 жарко 1018.8 1013.2
05 11.06 СВ 6 н/о н/о +31.0 +11.4 30 +31 +31 жарко 1017.1 1011.5
06 11.06 В 6 н/о н/о +30.6 +11.5 31 +31 +31 жарко 1016.9 1011.3
08 11.06 В 4 н/о н/о +25.8 +14.0 48 +28 +28 жарко 1017.3 1011.7
09 11.06 В 4 н/о н/о +24.1 +13.6 52 +26 +26 жарко 1017.5 1011.9
11 11.06 СВ 3 н/о н/о +20.6 +14.0 66 +23 +23 комфорт 1018.8 1013.2
12 11.06 В 3 н/о н/о +19.9 +13.1 65 +22 +22 комфорт 1018.7 1013.1
14 11.06 СВ 4 н/о н/о +18.2 +13.1 72 +18 +18 1018.7 1013.1 +31.4
15 11.06 СВ 4 н/о н/о +17.1 +13.2 78 +17 +17 1018.5 1012.9
17 11.06 СВ 4 н/о н/о +15.4 +12.2 81 +15 +15 1018.2 1012.6
18 11.06 СВ 4 н/о н/о +14.8 +11.9 83 +14 +14 1017.4 1011.8
20 11.06 СВ 4 н/о н/о +14.5 +10.9 79 +13 +13 1017.4 1011.8
21 11.06 СВ 5 н/о н/о +15.1 +10.9 76 +14 +14 1017.9 1012.3
23 11.06 С 10 н/о н/о +21.8 +12.4 55 +24 +24 комфорт 1017.9 1012.3
00 12.06 С 10 н/о н/о +24.7 +13.0 48 +27 +27 жарко 1018.3 1012.7
02 12.06 С 11 н/о н/о +27.9 +12.3 38 +29 +29 жарко 1017.3 1011.7 +14.1
03 12.06 С 10 н/о н/о +28.9 +12.3 36 +30 +30 жарко 1015.8 1010.2
05 12.06 С 8 н/о н/о +29.6 +12.5 35 +31 +31 жарко 1014.4 1008.8
06 12.06 С 6 н/о н/о +29.6 +12.9 36 +31 +31 жарко 1014.6 1009.0
08 12.06 СЗ 3 н/о н/о +28.3 +13.0 39 +30 +30 жарко 1015.3 1009.7
09 12.06 СВ 3 н/о н/о +25.4 +13.9 49 +28 +28 жарко 1016.1 1010.5
11 12.06 СВ 3 н/о н/о +22.6 +13.9 58 +26 +26 жарко 1016.3 1010.7
12 12.06 СВ 3 н/о н/о +21.8 +14.2 62 +25 +25 комфорт 1016.5 1010.9
14 12.06 ЮЗ 5 н/о н/о +21.2 +14.1 64 +24 +24 комфорт 1017.3 1011.7 +30.5
15 12.06 ЮЗ 5 н/о н/о +20.6 +14.3 67 +23 +23 комфорт 1017.3 1011.7
17 12.06 Ю 6 н/о н/о +19.9 +15.1 74 +22 +22 комфорт 1016.9 1011.3
18 12.06 Ю 8 н/о н/о +19.2 +14.9 76 +20 +20 1017.1 1011.5
20 12.06 Ю 8 н/о н/о +18.3 +12.1 67 +18 +18 1017.9 1012.3
21 12.06 Ю 8 н/о н/о +17.8 +12.3 70 +17 +17 1019.2 1013.6
23 12.06 Ю 6 н/о н/о +17.6 +12.3 71 +17 +17 1020.6 1014.9
00 13.06 Ю 7 н/о н/о +18.4 +11.7 65 +18 +18 1021.1 1015.4
02 13.06 Ю 8 н/о н/о +21.3 +12.7 58 +24 +24 комфорт 1020.1 1014.4 +17.1
03 13.06 Ю 7 н/о н/о +22.0 +12.5 55 +25 +25 комфорт 1019.0 1013.4
05 13.06 Ю 6 н/о н/о +23.3 +10.4 44 +25 +25 комфорт 1017.7 1012.1
06 13.06 Ю 7 н/о н/о +23.5 +9.1 40 +24 +24 комфорт 1017.7 1012.1
08 13.06 ЮЗ 4 н/о н/о +20.7 +9.3 48 +22 +22 комфорт 1018.4 1012.8
09 13.06 Ю 5 н/о н/о +18.9 +9.9 56 +19 +19 1019.2 1013.6
11 13.06 ЮЗ 4 н/о н/о +16.8 +9.7 63 +16 +16 1020.2 1014.5
12 13.06 Ю 4 н/о н/о +16.3 +10.2 67 +16 +16 1020.5 1014.8
14 13.06 Ю 3 н/о н/о +15.2 +10.2 72 +15 +15 1020.3 1014.6 +24.1
15 13.06 ЮЗ 4 н/о н/о +14.3 +9.7 74 +13 +13 1020.3 1014.6
17 13.06 Ю 3 н/о н/о +12.9 +8.6 75 +12 +12 1019.8 1014.1
18 13.06 ЮЗ 3 н/о н/о +11.4 +8.3 81 +10 +10 1020.1 1014.4
20 13.06 ЮЗ 3 н/о н/о +10.8 +7.5 80 +9 +9 1020.2 1014.5
21 13.06 ЮЗ 3 н/о н/о +10.5 +7.6 82 +8 +8 1021.0 1015.3
23 13.06 Ю 4 н/о н/о +13.4 +7.2 66 +12 +12 1021.9 1016.2
00 14.06 Ю 6 н/о н/о +16.4 +7.1 54 +15 +15 1022.4 1016.7
02 14.06 Ю 7 н/о н/о +19.8 +6.9 43 +20 +20 1021.5 1015.8 +10.4
03 14.06 Ю 6 н/о н/о +20.9 +7.5 42 +22 +22 комфорт 1020.4 1014.7
05 14.06 Ю 6 н/о н/о +21.0 +6.2 38 +22 +22 комфорт 1019.1 1013.5
06 14.06 Ю 5 н/о н/о +21.3 +6.4 38 +22 +22 комфорт 1019.0 1013.4
08 14.06 Ю 4 н/о н/о +19.0 +6.5 44 +19 +19 1019.9 1014.2
09 14.06 ЮЗ 4 н/о н/о +16.1 +7.6 57 +16 +16 1020.4 1014.7
11 14.06 ЮЗ 3 н/о н/о +14.0 +5.9 58 +13 +13 1021.5 1015.8
12 14.06 ЮЗ 3 н/о н/о +13.1 +5.5 60 +12 +12 1021.3 1015.6
14 14.06 Ю 3 н/о н/о +11.2 +5.7 69 +10 +10 1020.9 1015.2 +21.7
15 14.06 Ю 3 н/о н/о +11.5 +5.6 67 +10 +10 1020.8 1015.1
17 14.06 Ю 3 н/о н/о +10.8 +4.0 63 +9 +9 1020.2 1014.5
18 14.06 Ю 3 н/о н/о +9.8 +4.2 68 +8 +8 1020.0 1014.3
20 14.06 Ю 3 н/о н/о +7.6 +4.4 80 +5 +5 1020.4 1014.7
21 14.06 Ю 3 н/о н/о +8.3 +3.9 74 +6 +6 1020.7 1015.0
23 14.06 Ю 3 н/о н/о +11.0 +4.5 64 +9 +9 1022.1 1016.4
00 15.06 ЮВ 3 н/о н/о +14.9 +5.7 54 +14 +14 1022.6 1016.9
02 15.06 ЮВ 4 н/о н/о +19.8 +4.7 37 +20 +20 1021.6 1015.9 +7.6
03 15.06 ЮВ 5 н/о н/о +19.9 +3.6 34 +20 +20 1020.0 1014.3
05 15.06 ЮВ 4 н/о н/о +21.0 +3.2 31 +22 +22 комфорт 1018.5 1012.9
06 15.06 В 5 н/о н/о +21.1 +2.9 30 +21 +21 комфорт 1018.1 1012.5
08 15.06 В 3 н/о н/о +19.3 +3.5 35 +20 +20 1018.6 1013.0
09 15.06 ЮЗ 4 н/о н/о +16.0 +5.6 50 +15 +15 1019.6 1014.0
11 15.06 ЮЗ 4 н/о н/о +15.3 +6.6 56 +15 +15 1020.5 1014.8
12 15.06 Ю 4 н/о н/о +15.5 +8.7 64 +15 +15 1020.5 1014.8
14 15.06 В 3 н/о {туман} н/о +14.9 +9.1 68 +14 +14 1021.1 1015.4 +21.9
15 15.06 СВ 3 н/о н/о +14.1 +10.5 79 +13 +13 1020.2 1014.5
17 15.06 З 2 н/о {туман} н/о +13.0 +10.0 82 +12 +12 1020.5 1014.8
18 15.06 З 2 н/о н/о +12.1 +9.3 83 +11 +11 1020.4 1014.7
20 15.06 ЮЗ 3 н/о н/о +11.2 +8.1 81 +10 +10 1020.9 1015.2
21 15.06 ЮЗ 2 н/о н/о +10.4 +7.5 82 +9 +9 1021.4 1015.7
23 15.06 ЮЗ 3 н/о н/о +11.8 +8.6 81 +10 +10 1023.0 1017.3
00 16.06 ЮЗ 3 н/о н/о +15.0 +8.0 63 +15 +15 1023.3 1017.6

 

Местоположение метеостанции Бердсвилл (Квинсленд, Австралия): широта -25.90 долгота 139.35 высота над уровнем моря 47 м.

В архиве по умолчанию представлена погода в Бердсвилле за последнюю неделю. Архивные данные за месяц целиком и за предыдущие месяцы, начиная с января 2011 года, Вы можете получить, выбрав интересующий диапазон дат из раскрывающегося списка и нажав кнопку "Ввод!".


*Определитесь, кто Вы:
робот инопланетянин человек

Внимание! Время в таблицах - всемирное. Для получения местного времени необходимо прибавить поправку, которая равна 10 ч.

Смотрите также архив погоды в соседних городах и на ближайших метеорологических станциях:

Погода в Мумбе (Южная Австралия, Австралия) (259 км)
Погода в Месторождении Ballera (Квинсленд, Австралия) (298 км)
Погода в Однадатте (Южная Австралия, Австралия) (429 км)
Погода в Марри (Южная Австралия, Австралия) (437 км)
Погода в Фосфат-Хилл (Квинсленд, Австралия) (460 км)
Погода в Джервойсе (Северная территория, Австралия) (461 км)
Погода в Тибообере (Новый Южный Уэльс, Австралия) (476 км)
Погода в Аэропорту Трепелл (Квинсленд, Австралия) (479 км)
Погода в Таргоминде (Квинсленд, Австралия) (499 км)
Погода в Ли-Крике (Южная Австралия, Австралия) (531 км)

Пояснения к столбцам:

Ветер - указаны скорость ветра в м/с - средняя за 10 мин, порывы в срок и между сроками (в фигурных скобках) и направление, откуда дует ветер: С - северный, СВ - северо-восточный, В - восточный, ЮВ - юго-восточный, Ю - южный, ЮЗ - юго-западный, З - западный, СЗ - северо-западный.
Видимость - горизонтальная дальность видимости в метрах или километрах. При видимости от 1 до 10 км при отсутствии осадков обычно наблюдается дымка, при ухудшении видимости до 1 км и менее - туман. В сухую погоду видимость может ухудшаться дымом, пылью или мглою.
Явления - указаны атмосферные явления, наблюдавшиеся в срок или в последний час перед сроком; фигурными скобками обозначены явления, наблюдавшиеся между сроками (за 1-3 часа до срока); квадратными скобками обозначены град или гололедные отложения с указанием их диаметра в мм.
Облачность - указаны через наклонную черту общая и нижняя облачность в баллах и высота нижней границы облаков в метрах; квадратными скобками обозначены формы облаков: Ci - перистые, Cs - перисто-слоистые, Cc - перисто-кучевые, Ac - высококучевые, As - высокослоистые, Sc - слоисто-кучевые, Ns - слоисто-дождевые, Cu - кучевые, Cb - кучево-дождевые. Подробнее классификацию облаков см. в Атласе облаков (PDF).
T - Температура воздуха - температура, измеренная на высоте 2 м над землей.
Td - Температура точки росы - температура, при понижении до которой содержащийся в воздухе водяной пар достигнет насыщения.
f - Относительная влажность воздуха - влажноcть воздуха, измеренная на высоте 2 м над землей.
Te - Эффективная температура - температура, которую ощущает одетый по сезону человек в тени. Характеристика душности погоды. При расчете учитывается влияние влажности воздуха и скорости ветра на теплоощущения человека.
Tes - Эффективная температура на солнце - температура, которую ощущает человек, с поправкой на солнечный нагрев. Характеристика знойности погоды. Зависит от высоты солнца над горизонтом, облачности и скорости ветра. Ночью, в пасмурную погоду, а также при ветре 12 м/с и более поправка равна нулю.
P - Атмосферное давление - приведенное к уровню моря атмосферное давление.
Po - Атмосферное давление - измеренное на уровне метеостанции атмосферное давление.
Tmin - Минимальная температура - минимум температуры воздуха на высоте 2 м над землей.
Tmax - Максимальная температура - максимум температуры воздуха на высоте 2 м над землей.
R - Количество осадков - Количество выпавших осадков за период времени, мм. При наведении курсора мыши на число - период времени, за который выпало указанное количество осадков.
R24 - Количество осадков - Количество выпавших осадков за 24 часа, мм.
S - Снежный покров - Высота снежного покрова, см. При наведении курсора мыши на число - состояние снежного покрова и степень покрытия местности в баллах.